User: anonymous   Login
Location: B�di�
(14.6834°N, 3.1047°W)
Time: 12:24:33
(UTC+00:00)
Language:

Stardust Del rocket - Orbit

View from above orbital plane
View from above orbital plane
View from above satellite
View from above satellite

Ground track
Ground track

The orbit data is extracted from the following two-line orbital elements,

1 25619U 99003B   20088.70963326  .00005290 -31279-5  15983-3 0  9991
2 25619  22.4492 101.8866 2280326 125.7003 257.7551 10.82304692767309
Epoch (UTC): 28 March 2020 17:01:52
Eccentricity: 0.2280326
inclination: 22.4492°
perigee height: 286 km
apogee height: 4223 km
right ascension of ascending node: 101.8866°
argument of perigee: 125.7003°
revolutions per day: 10.82304692
mean anomaly at epoch: 257.7551°
orbit number at epoch: 76730

The dashed part of the orbit path shows where the satellite is in the earth's shadow,  

DLR